sat.trackr.live / text

‹ back to catalog

STARLINK-3649

NORAD 51980 · 2022-025AA

PAYLOAD ACTIVE UNKNOWN

§ Identity

Operator
Country
US
Launch date
2022-03-09
Launch site
AFETR
Launch vehicle
Mass (kg)
RCS (m²)

Purposes: comms

External: N2YO · Heavens-Above · Gunter

§ Orbital elements

Epoch: 2026-09-20T04:59:08.405088Z

Period
93.79 min
Inclination
53.1596°
Eccentricity
0.0001121
Mean motion
15.35424715 rev/d
Perigee alt
458.9 km
Apogee alt
460.4 km
Semi-major
6,837.8 km
B*
1.6274e-4
RAAN
236.7537°
Arg perigee
98.4298°
Mean anomaly
261.6832°
Rev number
25,054

§ Raw data

STARLINK-36491 51980U 22025AA  26263.20773617  .00005305  00000+0  16274-3 0  99912 51980  53.1596 236.7537 0001121  98.4298 261.6832 15.35424715250543

JSON: /api/v1/satellites/51980 · /tle

For live sub-satellite position, see the globe view (requires WebGL).

§ Visibility from observer

Set your observer location to see the next 7 days of passes ≥ 10°. The values pass through the URL so the page stays shareable.

No JS? Fill the form by hand. The geolocation button needs JavaScript.